[[{"header":{"parameterUnit":"m.s-1","parameterCategory":1,"la1":30.2991,"la2":30.254,"lo1":-89.0895,"lo2":-89.0444,"dy":0.0017,"dx":0.0017,"nx":28,"ny":28,"refTime":"2024-04-23T21:00:00:Z","depth":0,"parameterNumber":2,"parameterNumberName":"U-component_of_WINDS"},"data":[0,0,0,0,0,0,0,0,0,0,0,0,0,0,0,0,0,0,0,0,0,0,0,0,0,0,0,0,0,0,0,0,0,0,0,0,0,0,0,0,0,0,0,0,0,0,0,0,0,0,0,0,0,0,0,0,0,0,0.0916,0.0917,0,0.0963,0.0964,0.0964,0.0984,0.0984,0.0984,0.0984,0.1032,0.1034,0.1035,0,0,0,0,0,0,0,0,0,0,0,0,0,0.0843,0.0845,0.0916,0.0917,0.0917,0.0963,0.0964,0.0964,0.0984,0.0984,0.0984,0.0984,0.1032,0.1033,0.1035,0,0,0,0,0,0,0,0,0,0,0,0,0,0.0881,0.0845,0.0916,0.0933,0.0935,0.0963,0.0964,0.0965,0.0984,0.0984,0.0984,0.0984,0.1031,0.1033,0.1035,0.1051,0,0,0.1042,0.1043,0,0,0,0,0,0,0,0,0.0879,0.0884,0.093,0.0932,0.0934,0.0968,0.0956,0.0993,0.0984,0.0965,0.0984,0.0984,0.1011,0.1015,0.1024,0.1053,0.1055,0.1042,0.1043,0.1044,0.1045,0,0,0,0,0,0,0,0.0876,0.0882,0.0935,0.093,0.0933,0.0938,0.0943,0.0963,0.0988,0.0967,0.0969,0.0974,0.1012,0.1022,0.1025,0.1056,0.1042,0.1044,0.1045,0.1046,0.1099,0.1099,0,0,0,0,0,0,0.0871,0.0879,0.0933,0.0936,0.0905,0.0939,0.0945,0.0957,0.0988,0.0993,0.0974,0.0975,0.1018,0.1023,0.1027,0.1046,0.1044,0.1046,0.1047,0.1099,0.1099,0.1099,0,0,0,0,0,0,0.0869,0.0875,0.0931,0.0908,0.0916,0.0941,0.0954,0.0958,0.0968,0.0993,0.0998,0.0979,0.1018,0.1024,0.1044,0.1048,0.1047,0.1049,0.1099,0.1099,0.1099,0.1086,0,0,0,0,0,0,0.0867,0.0875,0.0881,0.0908,0.0917,0.0948,0.0954,0.0959,0.0971,0.0972,0.1,0.1004,0.1019,0.1041,0.1046,0.1051,0.105,0.1098,0.1099,0.1099,0.1086,0.1086,0.1085,0,0,0,0,0,0.0864,0.0876,0.0881,0.0888,0.0925,0.0948,0.0953,0.097,0.0971,0.0978,0.0994,0.1003,0.1047,0.1043,0.1049,0.1055,0.1098,0.1099,0.1099,0.1086,0.1086,0.1085,0,0,0,0,0,0,0.0849,0.088,0.0886,0.0906,0.0925,0.0952,0.096,0.0969,0.0987,0.0988,0.1008,0.1014,0.1032,0.1046,0.1041,0.1071,0.1073,0.1075,0.1062,0.1061,0.1061,0.1058,0.1052,0,0,0,0,0,0.0847,0.0864,0.089,0.0905,0.0914,0.0935,0.0946,0.0957,0.0977,0.0985,0.1003,0.1022,0.104,0.1051,0.1069,0.1088,0.1094,0.1095,0.1094,0.1094,0.1095,0.1105,0.1106,0.1101,0.1101,0.1101,0,0,0.0845,0.0864,0.0873,0.0903,0.0918,0.0934,0.0942,0.0959,0.0971,0.0988,0.1008,0.1022,0.1044,0.1063,0.1073,0.1075,0.1098,0.1094,0.1094,0.1095,0.1106,0.1106,0.1107,0.1101,0.1101,0.1101,0,0,0.085,0.0866,0.088,0.0895,0.0918,0.0932,0.0935,0.0961,0.0971,0.0991,0.1004,0.1019,0.1049,0.1065,0.1076,0.1085,0.1094,0.1091,0.1089,0.1099,0.1099,0.11,0.1103,0.1104,0.1092,0.1092,0.1092,0,0.0844,0.0869,0.0886,0.0903,0.0915,0.093,0.0945,0.0958,0.0986,0.0994,0.0996,0.1034,0.105,0.1073,0.1075,0.1085,0.1089,0.1088,0.1098,0.1098,0.1099,0.1102,0.1103,0.1091,0.1091,0.1091,0.1091,0,0.0861,0.0878,0.0887,0.0913,0.0926,0.0942,0.0961,0.0972,0.0982,0.0996,0.1016,0.1036,0.1058,0.1064,0.1074,0.1088,0.1089,0.1094,0.1097,0.1099,0.1102,0.1103,0.109,0.109,0.1091,0.1091,0,0,0.0858,0.0892,0.0895,0.0907,0.0933,0.0947,0.0962,0.0984,0.0993,0.1011,0.1025,0.105,0.1054,0.1068,0.1079,0.1088,0.1093,0.1092,0.1093,0.1091,0.111,0.1106,0.1108,0.1099,0.1099,0.11,0.1108,0,0.0866,0.0895,0.091,0.0932,0.0948,0.0962,0.0976,0.0993,0.1006,0.1021,0.1036,0.1053,0.1058,0.1066,0.1075,0.1091,0.1097,0.109,0.1112,0.1113,0.1106,0.1109,0.1106,0.1113,0.111,0.111,0.111,0,0.0879,0.0897,0.0921,0.0944,0.0951,0.0963,0.0984,0.0998,0.1018,0.1027,0.1041,0.1052,0.1069,0.107,0.1094,0.1088,0.1098,0.1107,0.1108,0.1111,0.1112,0.1112,0.1115,0.1116,0.1112,0.1112,0.1112,0,0.0874,0.0904,0.0922,0.0931,0.0959,0.0967,0.0979,0.0999,0.1011,0.1028,0.1036,0.1055,0.1066,0.1081,0.1097,0.1096,0.1118,0.1121,0.1126,0.1126,0.1131,0.113,0.1135,0.1136,0.1136,0.1136,0.1136,0,0.0881,0.0895,0.092,0.0931,0.0947,0.0964,0.0979,0.0992,0.1009,0.1023,0.1036,0.1049,0.1069,0.1084,0.1097,0.1114,0.1119,0.1126,0.113,0.1125,0.1124,0.1132,0.1132,0.1137,0.1137,0.1137,0.1137,0,0.0879,0.0896,0.0916,0.0941,0.0947,0.0958,0.0979,0.099,0.1003,0.102,0.1025,0.1046,0.1064,0.1082,0.1106,0.1115,0.1132,0.1136,0.1125,0.1127,0.1131,0.1131,0.1142,0.1144,0.1143,0.1143,0.1143,0,0.0882,0.0893,0.0919,0.0929,0.0941,0.0957,0.0968,0.0985,0.0997,0.102,0.1028,0.1047,0.1064,0.1092,0.1109,0.1128,0.1133,0.1136,0.1136,0.1131,0.1133,0.1132,0.1133,0.1135,0.1135,0.1135,0.1135,0,0.0887,0.0895,0.0911,0.093,0.0944,0.096,0.0976,0.0983,0.1003,0.1016,0.1034,0.1047,0.1072,0.109,0.1111,0.1123,0.1133,0.1135,0.1137,0.1133,0.1126,0.113,0.1124,0.1135,0.1135,0.1135,0.1135,0.1135,0.0888,0.0898,0.0917,0.0935,0.0949,0.0964,0.0975,0.099,0.1006,0.1027,0.1036,0.1055,0.1074,0.1102,0.1114,0.1129,0.1131,0.1134,0.1135,0.1136,0.1135,0.1123,0.1133,0.1133,0.1133,0.1133,0.1133,0,0.0893,0.0906,0.0922,0.0944,0.0958,0.0965,0.0983,0.0994,0.1011,0.1027,0.1043,0.1064,0.1082,0.11,0.1119,0.1128,0.1132,0.1132,0.1132,0.1135,0.1132,0.1128,0.1128,0.1128,0.1128,0.1128,0.1128,0.1128,0.0898,0.0915,0.0925,0.0949,0.0962,0.0981,0.099,0.1004,0.1017,0.104,0.1055,0.1067,0.1084,0.1105,0.1121,0.1126,0.1133,0.1131,0.1137,0.1135,0.1135,0.1135,0.1132,0.1133,0.1133,0.1139,0.1139,0.1139]},{"header":{"parameterUnit":"m.s-1","parameterCategory":1,"la1":30.2991,"la2":30.254,"lo1":-89.0895,"lo2":-89.0444,"dy":0.0017,"dx":0.0017,"nx":28,"ny":28,"refTime":"2024-04-23T21:00:00:Z","depth":0,"parameterNumber":3,"parameterNumberName":"V-component_of_WINDS"},"data":[0,0,0,0,0,0,0,0,0,0,0,0,0,0,0,0,0,0,0,0,0,0,0,0,0,0,0,0,0,0,0,0,0,0,0,0,0,0,0,0,0,0,0,0,0,0,0,0,0,0,0,0,0,0,0,0,0,0,0.1457,0.1456,0,0.1371,0.137,0.1369,0.1298,0.1298,0.1297,0.1296,0.1206,0.1205,0.1203,0,0,0,0,0,0,0,0,0,0,0,0,0,0.1561,0.1559,0.1457,0.1456,0.1455,0.1371,0.137,0.1368,0.1298,0.1297,0.1297,0.1296,0.1207,0.1205,0.1203,0,0,0,0,0,0,0,0,0,0,0,0,0,0.1499,0.1559,0.1458,0.141,0.1405,0.1371,0.137,0.1368,0.1299,0.1297,0.1296,0.1295,0.1208,0.1205,0.1202,0.1208,0,0,0.1195,0.1193,0,0,0,0,0,0,0,0,0.1503,0.1495,0.1418,0.1413,0.1407,0.1344,0.1373,0.1315,0.1299,0.1339,0.1296,0.1295,0.1253,0.1247,0.1233,0.1204,0.12,0.1194,0.1193,0.1192,0.1191,0,0,0,0,0,0,0,0.1507,0.1499,0.1423,0.1417,0.1411,0.1393,0.1383,0.1362,0.1303,0.1335,0.133,0.1321,0.125,0.1235,0.123,0.1199,0.1194,0.1192,0.1191,0.119,0.1171,0.1172,0,0,0,0,0,0,0.1519,0.1503,0.1426,0.142,0.1453,0.1392,0.1381,0.1366,0.1303,0.1293,0.1322,0.1318,0.124,0.1233,0.1227,0.1229,0.1192,0.1189,0.1188,0.1169,0.1171,0.1172,0,0,0,0,0,0,0.1521,0.1513,0.1429,0.146,0.1448,0.1391,0.1375,0.1364,0.135,0.1293,0.1282,0.1318,0.1239,0.123,0.1213,0.1225,0.1188,0.1186,0.1168,0.117,0.1171,0.1235,0,0,0,0,0,0,0.1525,0.1514,0.1516,0.1461,0.1447,0.1418,0.1376,0.1364,0.1346,0.134,0.1286,0.1276,0.1238,0.1218,0.1211,0.1221,0.1184,0.1167,0.1169,0.1171,0.1232,0.1239,0.1245,0,0,0,0,0,0.1529,0.1537,0.1517,0.1508,0.1448,0.1419,0.1411,0.1366,0.1347,0.1348,0.1312,0.1278,0.1225,0.1217,0.1208,0.1218,0.1166,0.1168,0.1171,0.1229,0.1237,0.1245,0,0,0,0,0,0,0.1595,0.1529,0.1505,0.1496,0.1464,0.1407,0.1408,0.1377,0.1349,0.1344,0.129,0.1278,0.1268,0.1241,0.1233,0.122,0.1191,0.1192,0.1238,0.1246,0.1252,0.1259,0.1182,0,0,0,0,0,0.1609,0.1591,0.1534,0.1532,0.1517,0.1465,0.1451,0.1419,0.1383,0.1369,0.1331,0.1297,0.1272,0.1257,0.1232,0.1227,0.1215,0.123,0.1236,0.1242,0.1243,0.1239,0.1245,0.118,0.118,0.1179,0,0,0.1637,0.1598,0.1591,0.1544,0.1515,0.1498,0.1454,0.1437,0.1424,0.1366,0.1348,0.1319,0.1277,0.1267,0.126,0.1244,0.1258,0.1245,0.125,0.1248,0.1242,0.1248,0.1254,0.1181,0.1181,0.1181,0,0,0.1679,0.1648,0.1643,0.1615,0.1572,0.1537,0.1536,0.1484,0.1463,0.1444,0.14,0.1383,0.1342,0.1314,0.1295,0.1326,0.1294,0.1319,0.1353,0.1349,0.1355,0.1359,0.137,0.1375,0.1321,0.1321,0.1321,0,0.1719,0.1691,0.1644,0.163,0.1611,0.1558,0.1552,0.1527,0.1478,0.1465,0.1448,0.1396,0.1364,0.1346,0.1354,0.134,0.1337,0.1325,0.1358,0.1361,0.1365,0.1375,0.1379,0.1324,0.1324,0.1323,0.1323,0,0.1743,0.1724,0.1725,0.1679,0.166,0.165,0.1601,0.1587,0.1557,0.1524,0.1506,0.1466,0.1431,0.1424,0.1395,0.1402,0.1394,0.1368,0.1338,0.1375,0.1384,0.1387,0.1329,0.1328,0.1327,0.1326,0,0,0.1825,0.1753,0.1754,0.1732,0.1681,0.1665,0.1653,0.1619,0.1609,0.1576,0.1564,0.1531,0.1506,0.1484,0.1451,0.1448,0.1476,0.1422,0.142,0.1434,0.1481,0.1501,0.1507,0.1454,0.1454,0.1455,0.1485,0,0.1859,0.1834,0.1791,0.178,0.1762,0.1712,0.1701,0.1668,0.1637,0.1617,0.1582,0.156,0.1529,0.1516,0.151,0.1474,0.1484,0.1471,0.1442,0.1442,0.1455,0.1511,0.1532,0.1562,0.1488,0.1488,0.1489,0,0.1895,0.1866,0.1854,0.1803,0.1794,0.1785,0.1751,0.1733,0.1694,0.1672,0.1647,0.1611,0.1595,0.1567,0.1544,0.1536,0.1521,0.1501,0.1501,0.1497,0.1468,0.1509,0.1571,0.1576,0.1494,0.1493,0.1493,0,0.1956,0.1914,0.1901,0.1884,0.1825,0.182,0.1795,0.1756,0.1738,0.1708,0.1696,0.1664,0.1647,0.1623,0.1579,0.1563,0.1561,0.153,0.1542,0.1543,0.1544,0.1544,0.1605,0.1534,0.1534,0.1534,0.1534,0,0.1999,0.1993,0.1928,0.192,0.1912,0.1862,0.1856,0.1826,0.1791,0.1776,0.173,0.1717,0.166,0.164,0.1605,0.1591,0.1584,0.1565,0.1556,0.1569,0.1572,0.156,0.1556,0.1535,0.1535,0.1535,0.1535,0,0.2066,0.2022,0.2005,0.195,0.1937,0.1933,0.1886,0.1876,0.1843,0.1825,0.1817,0.1764,0.1739,0.1692,0.1653,0.163,0.1623,0.1607,0.1637,0.1631,0.1646,0.1645,0.1701,0.1705,0.1632,0.1633,0.1634,0,0.2097,0.2091,0.2036,0.2023,0.2,0.198,0.1962,0.1912,0.1896,0.1851,0.1847,0.1817,0.1791,0.1752,0.171,0.168,0.1663,0.1685,0.1658,0.1672,0.1664,0.1665,0.1664,0.1691,0.1692,0.1693,0.1694,0,0.2155,0.2134,0.211,0.2079,0.2059,0.2031,0.2002,0.1994,0.1937,0.1921,0.1894,0.1874,0.1834,0.1805,0.1769,0.1743,0.1709,0.1702,0.1703,0.1717,0.1734,0.1725,0.1653,0.1701,0.17,0.17,0.1699,0.1699,0.2205,0.2198,0.2158,0.2133,0.2106,0.2079,0.2067,0.2032,0.2009,0.1973,0.1945,0.1921,0.1882,0.183,0.1805,0.1785,0.1769,0.1771,0.1771,0.1773,0.1778,0.1738,0.1778,0.1778,0.1778,0.1777,0.1777,0,0.2261,0.2233,0.2211,0.2171,0.2151,0.2121,0.2087,0.2072,0.2052,0.2018,0.1994,0.1963,0.1935,0.1891,0.1859,0.1851,0.1835,0.1845,0.1845,0.1839,0.1794,0.1796,0.1858,0.1858,0.1858,0.1858,0.1858,0.1858,0.2288,0.2275,0.2248,0.2221,0.2192,0.2168,0.2151,0.2126,0.2099,0.2067,0.2044,0.2016,0.1978,0.1943,0.1916,0.1903,0.1894,0.1909,0.1891,0.185,0.1843,0.1835,0.1837,0.1907,0.1907,0.1938,0.1939,0.1939]}]]